Location: Winthrop
(48.4780°N, 120.1850°W)
Time: 21:12:59
(UTC-07:00)

CAPE 1 - Visible Passes

Search period start: 16 June 2024 00:00
Search period end: 26 June 2024 00:00
Orbit: 628 x 755 km, 98.4° (Epoch: 16 June)

Date Brightness Start Highest point End Pass type
(mag) Time Alt. Az. Time Alt. Az. Time Alt. Az.
16 Jun ? 02:13:34 10° ENE 02:14:52 11° E 02:16:10 10° ESE visible
16 Jun ? 03:48:30 10° NNE 03:53:09 90° WSW 03:57:35 10° SSW visible
17 Jun ? 02:51:04 10° NE 02:54:53 26° E 02:58:36 10° SSE visible
18 Jun ? 03:30:07 10° NNE 03:34:39 60° ESE 03:39:01 10° S visible
19 Jun ? 02:33:12 10° NE 02:36:13 17° E 02:39:10 10° SE visible
19 Jun ? 04:09:41 10° N 04:14:10 57° WNW 04:18:30 10° SSW visible
20 Jun ? 03:11:50 10° NNE 03:16:06 39° E 03:20:14 10° SSE visible
21 Jun ? 02:16:04 10° ENE 02:17:29 11° E 02:18:54 10° ESE visible
21 Jun ? 03:51:10 10° NNE 03:55:44 86° W 04:00:06 10° SSW visible
22 Jun ? 02:53:40 10° NE 02:57:28 26° E 03:01:10 10° SSE visible
23 Jun ? 03:32:44 10° NNE 03:37:11 63° ESE 03:41:32 10° S visible
24 Jun ? 02:35:44 10° NE 02:38:46 18° E 02:41:45 10° SE visible
24 Jun ? 04:12:18 10° N 04:16:41 54° WNW 04:20:57 10° SSW visible
25 Jun ? 03:14:23 10° NNE 03:18:36 41° E 03:22:43 10° S visible
